Flag for Canada Weather past 2 weeks in Whistler, British Columbia, Canada

Now
38 °F

Chilly.


Feels Like: 38 °F
Forecast: 34 / 37 °F
Wind: 1 mph from North

Location: Squamish Airport

Current Time: Dec 18, 2014 at 2:56:15 AM

Latest Report: Dec 18, 2014 at 2:00 AM


Visibility: N/A

Pressure: 29.92 "Hg

Humidity: 100%

Dew point: 38 °F

Location of WhistlerLocation

Historic Weather in Whistler — Graph

°F

Whistler temperature yesterday

Maximum temperature yesterday: 41 °F (at 3:00 PM)
Minimum temperature yesterday: 36 °F (at 9:00 PM)
Average temperature yesterday: 38 °F

Past Weeks' High & Low Weather Summary

 TemperatureHumidityPressure
High58 °F (Dec 9, 2:00 PM)100% (Dec 5, 4:00 AM)30.29 "Hg (Dec 5, 4:00 AM)
Low25 °F (Dec 4, 4:00 AM)46% (Dec 3, 1:00 PM)29.15 "Hg (Dec 10, 6:00 PM)
Average39 °F92%29.87 "Hg
* Reported Dec 3 1:00 AM — Dec 18 1:00 AM, Whistler, Weather by CustomWeather, © 2014

Note: Actual official high and low records may vary slightly from our data, if they occured in-between our weather recording intervals... More about our weather records

Advertising

Whistler weather history for previous 24 hours

 ConditionsComfort  
Time TempWeatherWind HumidityBarometerVisibility
1:00 AM
Dec 18
38 °FChilly.1 mph100%29.91 "HgN/A
12:00 AM38 °FChilly.1 mph100%29.91 "HgN/A
11:00 PM
Dec 17
39 °FChilly.1 mph100%29.91 "HgN/A
10:00 PM39 °FChilly.2 mph100%29.91 "HgN/A
9:00 PM36 °FChilly.No wind100%29.90 "HgN/A
8:00 PM39 °FChilly.No wind100%29.89 "HgN/A
7:00 PM39 °FChilly.No wind99%29.90 "HgN/A
6:00 PM39 °FChilly.1 mph100%29.89 "HgN/A
5:00 PM40 °FChilly.2 mph99%29.88 "HgN/A
4:00 PM38 °FChilly.1 mph100%29.87 "HgN/A
3:00 PM41 °FQuite cool.1 mph92%29.87 "HgN/A
2:00 PM40 °FQuite cool.2 mph98%29.85 "HgN/A
1:00 PM40 °FQuite cool.1 mph98%29.85 "HgN/A
12:00 PM40 °FChilly.1 mph99%29.86 "HgN/A
11:00 AM39 °FChilly.2 mph99%29.87 "HgN/A
10:00 AM38 °FChilly.No wind100%29.87 "HgN/A
9:00 AM37 °FChilly.1 mph100%29.85 "HgN/A
8:00 AM37 °FChilly.1 mph100%29.84 "HgN/A
7:00 AM37 °FChilly.2 mph100%29.83 "HgN/A
6:00 AM37 °FChilly.1 mph100%29.84 "HgN/A
5:00 AM37 °FChilly.1 mph100%29.83 "HgN/A
4:00 AM37 °FChilly.2 mph100%29.84 "HgN/A
3:00 AM37 °FChilly.2 mph100%29.85 "HgN/A
2:00 AM37 °FChilly.2 mph100%29.85 "HgN/A
Weather by CustomWeather, © 2014

See weather overviewHow to use our weather pages